Date String (YYYY-MM-DD hh:mm:ss) UTC,Instrument flags,absolute air pressure of the measurement (hPa),sample flow rate (lpm),inlet stack bypass flow (lpm),air temperature of the measurement (°C),ambient temperature measured by the external sensor (°C),aerosol sample conditioner tube jacket temperature (°C),OPC LED temperature (°C),internal box temperature (°C),relative humidity of the measurement (%),span deviation,mass concentration of particles derived from Lorenz-Mie calculation of OPC scattering (μg/m³),mass concentration of particles derived from Lorenz-Mie calculation of OPC scattering (μg/m³),mass concentration of particles derived from Lorenz-Mie calculation of OPC scattering (μg/m³)
DateTimeUTC,F1_M11,P_M11,Q1_M11,Q2_M11,T1_M11,T2_M11,T3_M11,T4_M11,T5_M11,U1_M11,ZSPAN_M11,X0_M11,X2_M11,X1_M11
2024-03-22 17:00:00,SystemResetWarning,0830.8,5.00,000.00,020.2,019.7,000.0,028.5,022.0,18.9,0000.0,0007.68,0002.76,0001.75
2024-03-22 17:01:00,SystemResetWarning,0830.8,5.02,000.00,020.2,019.7,000.0,028.5,022.0,19.1,0000.0,0007.15,0002.84,0001.78
2024-03-22 17:02:00,SystemResetWarning,0830.8,4.99,000.00,020.2,019.7,000.0,028.6,022.0,18.8,0000.0,0007.26,0002.92,0001.80
2024-03-22 17:03:00,SystemResetWarning,0830.8,4.99,000.00,020.2,019.7,000.0,028.6,022.0,18.9,0000.0,0007.69,0003.06,0001.85
2024-03-22 17:04:00,SystemResetWarning,0830.7,5.00,000.00,020.2,019.7,000.0,028.6,022.0,18.9,0000.0,0008.69,0003.11,0001.88
2024-03-22 17:05:00,SystemResetWarning,0830.8,5.01,000.00,020.2,019.8,000.0,028.6,022.0,18.8,0000.0,0009.23,0003.14,0001.92
2024-03-22 17:06:00,SystemResetWarning,0830.8,5.01,000.00,020.3,019.8,000.0,028.6,022.1,18.8,0000.0,0009.28,0003.15,0001.95
2024-03-22 17:07:00,SystemResetWarning,0830.8,5.01,000.00,020.3,019.8,000.0,028.6,022.1,18.9,0000.0,0009.25,0003.12,0001.95
2024-03-22 17:08:00,SystemResetWarning,0830.8,4.99,000.00,020.3,019.8,000.0,028.6,022.1,18.8,0000.0,0009.30,0003.15,0001.98
2024-03-22 17:09:00,SystemResetWarning,0830.8,5.00,000.00,020.3,019.8,000.0,028.7,022.1,18.5,0000.0,0008.95,0003.16,0002.03
2024-03-22 17:10:00,SystemResetWarning,0830.8,5.00,000.00,020.3,019.8,000.0,028.7,022.1,18.6,0000.0,0008.85,0003.19,0002.08
2024-03-22 17:11:00,SystemResetWarning,0830.8,5.01,000.00,020.3,019.8,000.0,028.7,022.1,19.0,0000.0,0009.47,0003.20,0002.12
2024-03-22 17:12:00,SystemResetWarning,0830.8,5.01,000.00,020.3,019.8,000.0,028.7,022.1,18.8,0000.0,0009.90,0003.15,0002.13
2024-03-22 17:13:00,SystemResetWarning,0830.8,5.00,000.00,020.4,019.8,000.0,028.7,022.1,18.6,0000.0,0010.08,0003.17,0002.15
2024-03-22 17:14:00,SystemResetWarning,0830.8,5.00,000.00,020.4,019.8,000.0,028.7,022.1,18.5,0000.0,0009.89,0003.18,0002.15
2024-03-22 17:15:00,SystemResetWarning,0830.7,5.00,000.00,020.4,019.8,000.0,028.7,022.1,18.5,0000.0,0009.04,0003.22,0002.18
2024-03-22 17:16:00,SystemResetWarning,0830.8,4.99,000.00,020.4,019.8,000.0,028.7,022.1,18.6,0000.0,0008.35,0003.23,0002.22
2024-03-22 17:17:00,SystemResetWarning,0830.7,5.00,000.00,020.4,019.8,000.0,028.7,022.1,18.6,0000.0,0008.57,0003.28,0002.29
2024-03-22 17:18:00,SystemResetWarning,0830.7,5.00,000.00,020.4,019.8,000.0,028.8,022.1,18.7,0000.0,0008.89,0003.32,0002.35
2024-03-22 17:19:00,SystemResetWarning,0830.7,5.00,000.00,020.4,019.8,000.0,028.8,022.2,18.7,0000.0,0009.07,0003.39,0002.43
2024-03-22 17:20:00,SystemResetWarning,0830.7,5.00,000.00,020.4,019.8,000.0,028.8,022.2,18.6,0000.0,0009.34,0003.46,0002.50
2024-03-22 17:21:00,SystemResetWarning,0830.7,5.00,000.00,020.4,019.9,000.0,028.8,022.2,19.0,0000.0,0009.47,0003.50,0002.56
2024-03-22 17:22:00,SystemResetWarning,0830.7,5.00,000.00,020.4,019.9,000.0,028.8,022.2,18.6,0000.0,0009.21,0003.59,0002.63
2024-03-22 17:23:00,SystemResetWarning,0830.7,5.00,000.00,020.5,019.9,000.0,028.8,022.2,18.3,0000.0,0008.54,0003.66,0002.71
2024-03-22 17:24:00,SystemResetWarning,0830.7,5.00,000.00,020.5,019.9,000.0,028.8,022.2,18.7,0000.0,0009.38,0003.70,0002.78
2024-03-22 17:25:00,SystemResetWarning,0830.7,5.00,000.00,020.5,020.0,000.0,028.8,022.3,19.0,0000.0,0009.37,0003.70,0002.82
2024-03-22 17:26:00,SystemResetWarning,0830.7,5.00,000.00,020.5,020.0,000.0,028.8,022.3,19.0,0000.0,0009.37,0003.68,0002.88
2024-03-22 17:27:00,SystemResetWarning,0830.7,5.00,000.00,020.5,020.0,000.0,028.8,022.3,19.0,0000.0,0009.58,0003.75,0002.93
2024-03-22 17:28:00,SystemResetWarning,0830.7,5.00,000.00,020.5,020.0,000.0,028.9,022.3,18.7,0000.0,0010.06,0003.82,0002.99
2024-03-22 17:29:00,SystemResetWarning,0830.7,5.00,000.00,020.5,020.0,000.0,028.9,022.3,18.9,0000.0,0009.93,0003.85,0003.03
2024-03-22 17:30:00,SystemResetWarning,0830.7,5.00,000.00,020.5,020.0,000.0,028.9,022.3,18.8,0000.0,0009.90,0003.86,0003.05
2024-03-22 17:31:00,SystemResetWarning,0830.7,5.00,000.00,020.6,020.0,000.0,028.9,022.3,18.8,0000.0,0009.75,0003.83,0003.07
2024-03-22 17:32:00,SystemResetWarning,0830.7,5.00,000.00,020.6,020.0,000.0,028.9,022.3,18.9,0000.0,0009.87,0003.84,0003.07
2024-03-22 17:33:00,SystemResetWarning,0830.7,5.00,000.00,020.6,020.0,000.0,028.9,022.3,18.4,0000.0,0010.54,0003.85,0003.09
2024-03-22 17:34:00,SystemResetWarning,0830.7,5.00,000.00,020.6,020.0,000.0,028.9,022.3,18.5,0000.0,0010.88,0003.83,0003.10
2024-03-22 17:35:00,SystemResetWarning,0830.7,5.01,000.00,020.6,020.0,000.0,028.9,022.3,18.8,0000.0,0010.43,0003.82,0003.10
2024-03-22 17:36:00,SystemResetWarning,0830.7,5.00,000.00,020.6,020.0,000.0,028.9,022.4,18.6,0000.0,0009.97,0003.82,0003.10
2024-03-22 17:37:00,SystemResetWarning,0830.7,5.00,000.00,020.6,020.0,000.0,028.9,022.4,18.4,0000.0,0010.90,0003.88,0003.11
2024-03-22 17:38:00,SystemResetWarning,0830.7,5.00,000.00,020.6,020.0,000.0,028.9,022.4,18.3,0000.0,0010.98,0003.95,0003.12
2024-03-22 17:39:00,SystemResetWarning,0830.7,4.99,000.00,020.6,020.0,000.0,029.0,022.4,18.2,0000.0,0010.78,0003.91,0003.12
2024-03-22 17:40:00,SystemResetWarning,0830.7,5.00,000.00,020.6,020.1,000.0,029.0,022.4,18.1,0000.0,0010.24,0003.90,0003.12
2024-03-22 17:41:00,SystemResetWarning,0830.7,4.99,000.00,020.6,020.1,000.0,029.0,022.4,18.5,0000.0,0010.32,0003.93,0003.12
2024-03-22 17:42:00,SystemResetWarning,0830.7,5.00,000.00,020.6,020.1,000.0,029.0,022.4,18.9,0000.0,0010.17,0003.91,0003.12
2024-03-22 17:43:00,SystemResetWarning,0830.7,5.01,000.00,020.7,020.1,000.0,029.0,022.5,18.5,0000.0,0010.71,0003.91,0003.14
2024-03-22 17:44:00,SystemResetWarning,0830.7,5.00,000.00,020.7,020.1,000.0,029.0,022.5,18.3,0000.0,0011.53,0003.91,0003.13
2024-03-22 17:45:00,SystemResetWarning,0830.7,5.00,000.00,020.7,020.1,000.0,029.0,022.5,18.4,0000.0,0011.57,0003.92,0003.13
2024-03-22 17:46:00,SystemResetWarning,0830.6,5.00,000.00,020.7,020.2,000.0,029.0,022.5,18.3,0000.0,0011.42,0003.94,0003.14
2024-03-22 17:47:00,SystemResetWarning,0830.6,5.00,000.00,020.7,020.2,000.0,029.1,022.5,18.3,0000.0,0012.24,0003.98,0003.14
2024-03-22 17:48:00,SystemResetWarning,0830.6,4.99,000.00,020.7,020.2,000.0,029.1,022.5,18.1,0000.0,0011.52,0003.98,0003.14
2024-03-22 17:49:00,SystemResetWarning,0830.6,5.00,000.00,020.7,020.2,000.0,029.1,022.5,18.2,0000.0,0011.85,0003.91,0003.14
2024-03-22 17:50:00,SystemResetWarning,0830.6,5.00,000.00,020.8,020.2,000.0,029.1,022.6,18.5,0000.0,0012.52,0003.89,0003.12
2024-03-22 17:51:00,SystemResetWarning,0830.6,5.00,000.00,020.8,020.3,000.0,029.1,022.6,18.5,0000.0,0012.62,0003.88,0003.11
2024-03-22 17:52:00,SystemResetWarning,0830.6,5.00,000.00,020.8,020.3,000.0,029.1,022.6,18.4,0000.0,0012.66,0003.90,0003.12
2024-03-22 17:53:00,SystemResetWarning,0830.6,5.00,000.00,020.8,020.3,000.0,029.1,022.6,18.1,0000.0,0013.02,0003.92,0003.15
2024-03-22 17:54:00,SystemResetWarning,0830.5,5.00,000.00,020.8,020.3,000.0,029.1,022.6,18.0,0000.0,0012.97,0003.94,0003.16
2024-03-22 17:55:00,SystemResetWarning,0830.5,5.00,000.00,020.8,020.3,000.0,029.1,022.6,18.4,0000.0,0011.84,0003.92,0003.15
2024-03-22 17:56:00,SystemResetWarning,0830.6,4.99,000.00,020.8,020.3,000.0,029.2,022.6,18.1,0000.0,0012.29,0003.93,0003.15
2024-03-22 17:57:00,SystemResetWarning,0830.5,5.01,000.00,020.8,020.3,000.0,029.2,022.6,18.1,0000.0,0012.79,0003.95,0003.16
2024-03-22 17:58:00,SystemResetWarning,0830.6,5.01,000.00,020.9,020.3,000.0,029.2,022.6,18.2,0000.0,0012.34,0003.94,0003.17
2024-03-22 17:59:00,SystemResetWarning,0830.7,5.01,000.00,020.9,020.3,000.0,029.2,022.6,18.3,0000.0,0012.13,0003.94,0003.18
